| time (UTC) | temp F | wind direction | speed MPH | gust MPH | rain 1hr in | rain 24hr in | rain mn in | humidity % | barometer mb |
| 20260509024114 | 83 | 184 | 3.0 | 5.0 | 0.00 | 0.00 | 0.01 | 82 | 1008.0 |
| 20260509023614 | 82 | 90 | 2.0 | 2.0 | 0.00 | 0.00 | 0.01 | 84 | 1009.0 |
| 20260509023115 | 81 | 101 | 0.0 | 1.0 | 0.00 | 0.00 | 0.01 | 87 | 1008.0 |
| 20260509022615 | 80 | 90 | 1.0 | 1.0 | 0.00 | 0.00 | 0.01 | 87 | 1008.0 |
| 20260509022114 | 80 | 89 | 0.0 | 0.0 | 0.00 | 0.00 | 0.01 | 88 | 1008.0 |
| 20260509021614 | 80 | 94 | 2.0 | 2.0 | 0.00 | 0.00 | 0.01 | 88 | 1008.0 |
| 20260509021114 | 80 | 89 | 2.0 | 2.0 | 0.00 | 0.00 | 0.01 | 89 | 1008.0 |
| 20260509020614 | 79 | 95 | 1.0 | 1.0 | 0.00 | 0.00 | 0.01 | 89 | 1008.0 |
| 20260509020114 | 79 | 97 | 1.0 | 1.0 | 0.00 | 0.00 | 0.01 | 89 | 1008.0 |
| 20260509015614 | 79 | 95 | 0.0 | 0.0 | 0.00 | 0.00 | 0.01 | 90 | 1008.0 |
| 20260509015114 | 79 | 98 | 1.0 | 1.0 | 0.00 | 0.00 | 0.01 | 90 | 1008.0 |
| 20260509014614 | 79 | 98 | 0.0 | 0.0 | 0.00 | 0.00 | 0.01 | 90 | 1008.0 |
| 20260509014116 | 79 | 102 | 0.0 | 0.0 | 0.00 | 0.00 | 0.01 | 90 | 1008.0 |
| 20260509013614 | 78 | 107 | 1.0 | 1.0 | 0.00 | 0.00 | 0.01 | 90 | 1007.0 |
| 20260509013115 | 78 | 95 | 0.0 | 1.0 | 0.00 | 0.00 | 0.01 | 90 | 1007.0 |
| 20260509012614 | 78 | 94 | 1.0 | 1.0 | 0.00 | 0.00 | 0.01 | 90 | 1007.0 |
| 20260509012115 | 78 | 91 | 1.0 | 1.0 | 0.07 | 0.00 | 0.01 | 90 | 1007.0 |
| 20260509011614 | 78 | 91 | 1.0 | 1.0 | 0.07 | 0.00 | 0.01 | 90 | 1007.0 |
| 20260509011114 | 78 | 99 | 2.0 | 3.0 | 0.00 | 0.00 | 0.00 | 90 | 1007.0 |
| 20260509010614 | 78 | 94 | 0.0 | 1.0 | 0.00 | 0.00 | 0.00 | 90 | 1007.0 |
| 20260509010114 | 78 | 87 | 0.0 | 0.0 | 0.00 | 0.00 | 0.00 | 90 | 1007.0 |
| 20260509005614 | 78 | 80 | 1.0 | 1.0 | 0.00 | 0.00 | 0.00 | 89 | 1007.0 |
| 20260509005115 | 78 | 98 | 1.0 | 2.0 | 0.00 | 0.00 | 0.00 | 89 | 1007.0 |
| 20260509004616 | 78 | 102 | 1.0 | 1.0 | 0.00 | 0.00 | 0.00 | 89 | 1007.0 |
| 20260509004114 | 78 | 87 | 1.0 | 1.0 | 0.00 | 0.00 | 0.00 | 89 | 1007.0 |
| 20260509003614 | 78 | 79 | 0.0 | 0.0 | 0.00 | 0.00 | 0.00 | 89 | 1007.0 |
| 20260509003114 | 78 | 81 | 1.0 | 2.0 | 0.00 | 0.00 | 0.00 | 89 | 1007.0 |
| 20260509002615 | 78 | 79 | 1.0 | 2.0 | 0.00 | 0.00 | 0.00 | 89 | 1007.0 |
| 20260509002114 | 78 | 93 | 1.0 | 2.0 | 0.00 | 0.00 | 0.00 | 89 | 1007.0 |
| 20260509001614 | 79 | 72 | 2.0 | 2.0 | 0.00 | 0.00 | 0.00 | 89 | 1007.0 |
| 20260509001114 | 79 | 103 | 2.0 | 2.0 | 0.00 | 0.00 | 0.00 | 88 | 1007.0 |
| 20260509000614 | 79 | 104 | 1.0 | 1.0 | 0.00 | 0.00 | 0.00 | 88 | 1006.0 |
| 20260509000115 | 79 | 85 | 2.0 | 2.0 | 0.00 | 0.00 | 0.00 | 87 | 1007.0 |
| 20260508235614 | 79 | 96 | 2.0 | 2.0 | 0.00 | 0.00 | 0.00 | 87 | 1007.0 |
| 20260508235115 | 79 | 164 | 3.0 | 3.0 | 0.00 | 0.00 | 0.00 | 86 | 1006.0 |
| 20260508234615 | 79 | 92 | 3.0 | 3.0 | 0.00 | 0.00 | 0.00 | 86 | 1007.0 |
| 20260508234114 | 79 | 78 | 1.0 | 1.0 | 0.00 | 0.00 | 0.00 | 86 | 1006.0 |
| 20260508233614 | 79 | 80 | 1.0 | 1.0 | 0.00 | 0.00 | 0.00 | 86 | 1006.0 |
| 20260508233114 | 79 | 75 | 1.0 | 1.0 | 0.00 | 0.00 | 0.00 | 86 | 1006.0 |
| 20260508232614 | 79 | 74 | 1.0 | 1.0 | 0.00 | 0.00 | 0.00 | 86 | 1006.0 |
| 20260508232114 | 79 | 74 | 1.0 | 1.0 | 0.00 | 0.00 | 0.00 | 86 | 1006.0 |
| 20260508231616 | 80 | 64 | 0.0 | 1.0 | 0.00 | 0.00 | 0.00 | 86 | 1006.0 |
| 20260508231115 | 80 | 68 | 0.0 | 1.0 | 0.00 | 0.00 | 0.00 | 86 | 1006.0 |
| 20260508230614 | 80 | 103 | 1.0 | 2.0 | 0.00 | 0.00 | 0.00 | 85 | 1006.0 |
| 20260508230114 | 79 | 112 | 2.0 | 2.0 | 0.00 | 0.00 | 0.00 | 86 | 1006.0 |
| 20260508225614 | 79 | 142 | 4.0 | 5.0 | 0.00 | 0.00 | 0.00 | 87 | 1006.0 |
| 20260508225114 | 79 | 98 | 3.0 | 3.0 | 0.00 | 0.00 | 0.00 | 88 | 1006.0 |
| 20260508224615 | 79 | 54 | 0.0 | 1.0 | 0.00 | 0.00 | 0.00 | 88 | 1006.0 |
| 20260508224114 | 79 | 22 | 3.0 | 3.0 | 0.00 | 0.00 | 0.00 | 88 | 1006.0 |
| 20260508223615 | 79 | 56 | 1.0 | 2.0 | 0.00 | 0.00 | 0.00 | 88 | 1006.0 |
| 20260508223115 | 79 | 84 | 1.0 | 2.0 | 0.00 | 0.00 | 0.00 | 88 | 1006.0 |
| 20260508222614 | 79 | 77 | 1.0 | 1.0 | 0.00 | 0.00 | 0.00 | 88 | 1006.0 |
| 20260508222115 | 79 | 73 | 0.0 | 1.0 | 0.00 | 0.00 | 0.00 | 88 | 1006.0 |
| 20260508221615 | 79 | 74 | 0.0 | 0.0 | 0.00 | 0.00 | 0.00 | 88 | 1006.0 |
| 20260508221114 | 79 | 78 | 1.0 | 1.0 | 0.00 | 0.00 | 0.00 | 88 | 1006.0 |
| 20260508220616 | 79 | 74 | 0.0 | 0.0 | 0.00 | 0.00 | 0.00 | 89 | 1006.0 |
| 20260508220114 | 79 | 75 | 2.0 | 3.0 | 0.00 | 0.00 | 0.00 | 89 | 1006.0 |
| 20260508215615 | 79 | 73 | 0.0 | 0.0 | 0.00 | 0.00 | 0.00 | 89 | 1006.0 |
| 20260508215114 | 79 | 72 | 0.0 | 0.0 | 0.00 | 0.00 | 0.00 | 89 | 1006.0 |
| 20260508214614 | 79 | 73 | 0.0 | 1.0 | 0.00 | 0.00 | 0.00 | 89 | 1006.0 |
| 20260508214114 | 79 | 75 | 0.0 | 0.0 | 0.00 | 0.00 | 0.00 | 89 | 1006.0 |
| 20260508213614 | 79 | 76 | 1.0 | 1.0 | 0.00 | 0.00 | 0.00 | 89 | 1006.0 |
| 20260508213114 | 79 | 78 | 0.0 | 0.0 | 0.00 | 0.00 | 0.00 | 89 | 1006.0 |
| 20260508212615 | 79 | 72 | 0.0 | 1.0 | 0.00 | 0.00 | 0.00 | 89 | 1006.0 |
| 20260508212115 | 79 | 117 | 1.0 | 2.0 | 0.00 | 0.00 | 0.00 | 89 | 1006.0 |
| 20260508211614 | 79 | 75 | 3.0 | 3.0 | 0.00 | 0.00 | 0.00 | 89 | 1006.0 |
| 20260508211115 | 79 | 74 | 0.0 | 1.0 | 0.00 | 0.00 | 0.00 | 89 | 1006.0 |
| 20260508210614 | 79 | 96 | 2.0 | 2.0 | 0.00 | 0.00 | 0.00 | 89 | 1006.0 |
| 20260508210115 | 79 | 83 | 1.0 | 1.0 | 0.00 | 0.00 | 0.00 | 89 | 1006.0 |
| 20260508205614 | 79 | 83 | 1.0 | 2.0 | 0.00 | 0.00 | 0.00 | 89 | 1006.0 |
| 20260508205114 | 79 | 85 | 1.0 | 2.0 | 0.00 | 0.00 | 0.00 | 89 | 1006.0 |
| 20260508204618 | 79 | 78 | 1.0 | 1.0 | 0.00 | 0.00 | 0.00 | 89 | 1006.0 |
| 20260508204115 | 79 | 76 | 0.0 | 0.0 | 0.00 | 0.00 | 0.00 | 88 | 1006.0 |
| 20260508203615 | 79 | 81 | 0.0 | 0.0 | 0.00 | 0.00 | 0.00 | 88 | 1006.0 |
| 20260508203114 | 79 | 81 | 0.0 | 0.0 | 0.00 | 0.00 | 0.00 | 88 | 1006.0 |
| 20260508202614 | 79 | 78 | 0.0 | 1.0 | 0.00 | 0.00 | 0.00 | 88 | 1006.0 |
| 20260508202114 | 79 | 75 | 0.0 | 0.0 | 0.00 | 0.00 | 0.00 | 88 | 1006.0 |
| 20260508201614 | 79 | 78 | 0.0 | 0.0 | 0.00 | 0.00 | 0.00 | 88 | 1006.0 |
| 20260508201115 | 80 | 81 | 1.0 | 1.0 | 0.00 | 0.00 | 0.00 | 88 | 1006.0 |
| 20260508200615 | 80 | 83 | 0.0 | 1.0 | 0.00 | 0.00 | 0.00 | 88 | 1006.0 |
| 20260508200115 | 80 | 83 | 0.0 | 0.0 | 0.00 | 0.00 | 0.00 | 88 | 1006.0 |
| 20260508195616 | 80 | 83 | 0.0 | 0.0 | 0.00 | 0.00 | 0.00 | 88 | 1006.0 |
| 20260508195114 | 80 | 83 | 0.0 | 0.0 | 0.00 | 0.00 | 0.00 | 88 | 1006.0 |
| 20260508194615 | 80 | 83 | 0.0 | 1.0 | 0.00 | 0.00 | 0.00 | 88 | 1007.0 |
| 20260508194115 | 80 | 83 | 0.0 | 1.0 | 0.00 | 0.00 | 0.00 | 88 | 1007.0 |
| 20260508193614 | 80 | 83 | 0.0 | 0.0 | 0.00 | 0.00 | 0.00 | 88 | 1007.0 |
| 20260508193117 | 80 | 82 | 0.0 | 0.0 | 0.00 | 0.00 | 0.00 | 88 | 1007.0 |
| 20260508192614 | 80 | 83 | 0.0 | 1.0 | 0.00 | 0.00 | 0.00 | 88 | 1007.0 |
| 20260508192114 | 80 | 83 | 0.0 | 1.0 | 0.00 | 0.00 | 0.00 | 88 | 1007.0 |
| 20260508191616 | 80 | 83 | 0.0 | 0.0 | 0.00 | 0.00 | 0.00 | 88 | 1007.0 |
| 20260508191114 | 80 | 83 | 0.0 | 0.0 | 0.00 | 0.00 | 0.00 | 88 | 1007.0 |
| 20260508190615 | 80 | 83 | 1.0 | 1.0 | 0.00 | 0.00 | 0.00 | 88 | 1007.0 |
| 20260508190115 | 80 | 83 | 0.0 | 0.0 | 0.00 | 0.00 | 0.00 | 88 | 1007.0 |
| 20260508185615 | 80 | 83 | 0.0 | 0.0 | 0.00 | 0.00 | 0.00 | 88 | 1007.0 |
| 20260508185114 | 80 | 83 | 0.0 | 0.0 | 0.00 | 0.00 | 0.00 | 88 | 1007.0 |
| 20260508184615 | 80 | 84 | 0.0 | 0.0 | 0.00 | 0.00 | 0.00 | 88 | 1007.0 |
| 20260508184115 | 80 | 84 | 1.0 | 1.0 | 0.00 | 0.00 | 0.00 | 88 | 1007.0 |
| 20260508183615 | 80 | 81 | 0.0 | 0.0 | 0.00 | 0.00 | 0.00 | 88 | 1007.0 |
| 20260508183115 | 80 | 81 | 1.0 | 1.0 | 0.00 | 0.00 | 1.38 | 88 | 1008.0 |
| 20260508182614 | 80 | 81 | 1.0 | 1.0 | 0.00 | 0.00 | 1.38 | 87 | 1008.0 |
| 20260508182115 | 80 | 81 | 0.0 | 0.0 | 0.00 | 0.00 | 1.38 | 87 | 1008.0 |
| 20260508181614 | 80 | 81 | 0.0 | 1.0 | 0.00 | 0.00 | 1.38 | 87 | 1008.0 |
| 20260508181115 | 80 | 81 | 0.0 | 0.0 | 0.00 | 0.00 | 1.38 | 87 | 1008.0 |
| 20260508180614 | 80 | 81 | 0.0 | 0.0 | 0.00 | 0.00 | 1.38 | 87 | 1008.0 |
| 20260508180115 | 80 | 81 | 0.0 | 0.0 | 0.00 | 0.00 | 1.38 | 87 | 1008.0 |
| 20260508175614 | 80 | 81 | 0.0 | 0.0 | 0.00 | 0.00 | 1.38 | 87 | 1008.0 |
| 20260508175115 | 80 | 81 | 0.0 | 1.0 | 0.00 | 0.00 | 1.38 | 87 | 1008.0 |
| 20260508174614 | 80 | 81 | 1.0 | 1.0 | 0.00 | 0.00 | 1.38 | 87 | 1008.0 |
| 20260508174114 | 80 | 80 | 0.0 | 0.0 | 0.00 | 0.00 | 1.38 | 87 | 1008.0 |
| 20260508173614 | 80 | 80 | 0.0 | 0.0 | 0.00 | 0.00 | 1.38 | 87 | 1008.0 |
| 20260508173117 | 80 | 80 | 0.0 | 1.0 | 0.00 | 0.00 | 1.38 | 87 | 1008.0 |
| 20260508172614 | 80 | 80 | 0.0 | 0.0 | 0.00 | 0.00 | 1.38 | 87 | 1008.0 |
| 20260508172114 | 80 | 80 | 0.0 | 1.0 | 0.00 | 0.00 | 1.38 | 87 | 1008.0 |
| 20260508171614 | 80 | 77 | 0.0 | 0.0 | 0.00 | 0.00 | 1.38 | 87 | 1008.0 |
| 20260508171116 | 80 | 77 | 0.0 | 0.0 | 0.00 | 0.00 | 1.38 | 87 | 1008.0 |
| 20260508170615 | 80 | 77 | 0.0 | 0.0 | 0.00 | 0.00 | 1.38 | 88 | 1008.0 |
| 20260508170115 | 80 | 77 | 0.0 | 0.0 | 0.00 | 0.00 | 1.38 | 87 | 1008.0 |
| 20260508165615 | 80 | 77 | 0.0 | 0.0 | 0.00 | 0.00 | 1.38 | 87 | 1008.0 |
| 20260508165114 | 80 | 78 | 1.0 | 1.0 | 0.00 | 0.00 | 1.38 | 87 | 1008.0 |
| 20260508164614 | 80 | 74 | 0.0 | 1.0 | 0.00 | 0.00 | 1.38 | 87 | 1008.0 |
| 20260508164114 | 80 | 73 | 1.0 | 1.0 | 0.00 | 0.00 | 1.38 | 87 | 1008.0 |
| 20260508163615 | 81 | 73 | 1.0 | 1.0 | 0.00 | 0.00 | 1.38 | 86 | 1008.0 |
| 20260508163115 | 81 | 74 | 1.0 | 1.0 | 0.00 | 0.00 | 1.38 | 86 | 1008.0 |
| 20260508162615 | 81 | 74 | 0.0 | 1.0 | 0.00 | 0.00 | 1.38 | 85 | 1008.0 |
| 20260508162114 | 80 | 56 | 0.0 | 0.0 | 0.00 | 0.00 | 1.38 | 85 | 1008.0 |
| 20260508161615 | 80 | 56 | 0.0 | 0.0 | 0.00 | 0.00 | 1.38 | 85 | 1008.0 |
| 20260508161114 | 80 | 56 | 0.0 | 0.0 | 0.00 | 0.00 | 1.38 | 85 | 1008.0 |
| 20260508160616 | 80 | 55 | 0.0 | 0.0 | 0.00 | 0.00 | 1.38 | 85 | 1008.0 |
| 20260508160115 | 80 | 55 | 0.0 | 1.0 | 0.00 | 0.00 | 1.38 | 85 | 1008.0 |
| 20260508155615 | 80 | 55 | 0.0 | 0.0 | 0.00 | 0.00 | 1.38 | 85 | 1008.0 |
| 20260508155115 | 80 | 55 | 0.0 | 0.0 | 0.00 | 0.00 | 1.38 | 85 | 1008.0 |
| 20260508154615 | 81 | 68 | 1.0 | 1.0 | 0.00 | 0.00 | 1.38 | 85 | 1008.0 |
| 20260508154115 | 81 | 59 | 1.0 | 1.0 | 0.00 | 0.00 | 1.38 | 85 | 1008.0 |
| 20260508153615 | 81 | 82 | 0.0 | 0.0 | 0.00 | 0.00 | 1.38 | 84 | 1008.0 |
| 20260508153114 | 81 | 82 | 0.0 | 1.0 | 0.00 | 0.00 | 1.38 | 84 | 1008.0 |
| 20260508152615 | 81 | 82 | 0.0 | 0.0 | 0.00 | 0.00 | 1.38 | 84 | 1008.0 |
| 20260508152114 | 81 | 82 | 0.0 | 0.0 | 0.00 | 0.00 | 1.38 | 84 | 1008.0 |
| 20260508151615 | 81 | 82 | 0.0 | 0.0 | 0.00 | 0.00 | 1.38 | 84 | 1008.0 |
| 20260508151115 | 81 | 82 | 1.0 | 1.0 | 0.00 | 0.00 | 1.38 | 84 | 1008.0 |
| 20260508150616 | 81 | 81 | 1.0 | 1.0 | 0.00 | 0.00 | 1.38 | 83 | 1008.0 |
| 20260508150114 | 81 | 81 | 1.0 | 1.0 | 0.00 | 0.00 | 1.38 | 83 | 1008.0 |
| 20260508145614 | 81 | 81 | 0.0 | 0.0 | 0.00 | 0.00 | 1.38 | 83 | 1008.0 |
| 20260508145115 | 81 | 80 | 0.0 | 0.0 | 0.00 | 0.00 | 1.38 | 83 | 1007.0 |
| 20260508144616 | 81 | 79 | 0.0 | 0.0 | 0.00 | 0.00 | 1.38 | 83 | 1007.0 |
| 20260508144114 | 81 | 77 | 0.0 | 1.0 | 0.00 | 0.00 | 1.38 | 83 | 1007.0 |
| 20260508143615 | 81 | 73 | 0.0 | 0.0 | 0.00 | 0.00 | 1.38 | 83 | 1007.0 |
| 20260508143115 | 81 | 72 | 0.0 | 0.0 | 0.00 | 0.00 | 1.38 | 83 | 1007.0 |
| 20260508142615 | 81 | 93 | 1.0 | 1.0 | 0.00 | 0.00 | 1.38 | 82 | 1007.0 |
| 20260508142115 | 81 | 75 | 0.0 | 0.0 | 0.00 | 0.00 | 1.38 | 82 | 1007.0 |
| 20260508141614 | 81 | 87 | 1.0 | 1.0 | 0.00 | 0.00 | 1.38 | 82 | 1007.0 |
| 20260508141115 | 81 | 73 | 0.0 | 0.0 | 0.00 | 0.00 | 1.38 | 82 | 1007.0 |
| 20260508140614 | 81 | 76 | 1.0 | 1.0 | 0.00 | 0.00 | 1.38 | 81 | 1007.0 |
| 20260508140114 | 82 | 67 | 0.0 | 0.0 | 0.00 | 0.00 | 1.38 | 81 | 1007.0 |
| 20260508135614 | 82 | 79 | 1.0 | 2.0 | 0.00 | 0.00 | 1.38 | 80 | 1007.0 |
| 20260508135114 | 82 | 73 | 1.0 | 1.0 | 0.00 | 0.00 | 1.38 | 79 | 1007.0 |
| 20260508134614 | 82 | 62 | 1.0 | 2.0 | 0.00 | 0.00 | 1.38 | 79 | 1007.0 |
| 20260508134114 | 82 | 48 | 2.0 | 3.0 | 0.00 | 0.00 | 1.38 | 79 | 1006.0 |
| 20260508133616 | 82 | 179 | 2.0 | 3.0 | 0.00 | 0.00 | 1.38 | 79 | 1007.0 |
| 20260508133114 | 82 | 64 | 0.0 | 1.0 | 0.00 | 0.00 | 1.38 | 79 | 1006.0 |
| 20260508132615 | 82 | 71 | 2.0 | 2.0 | 0.00 | 0.00 | 1.38 | 79 | 1006.0 |
| 20260508132114 | 82 | 21 | 4.0 | 5.0 | 0.00 | 0.00 | 1.38 | 79 | 1006.0 |
| 20260508131614 | 82 | 119 | 2.0 | 3.0 | 0.00 | 0.00 | 1.38 | 79 | 1006.0 |
| 20260508131115 | 82 | 43 | 3.0 | 3.0 | 0.00 | 0.00 | 1.38 | 79 | 1006.0 |
| 20260508130615 | 82 | 72 | 3.0 | 5.0 | 0.00 | 0.00 | 1.38 | 79 | 1007.0 |
| 20260508130116 | 82 | 104 | 3.0 | 3.0 | 0.00 | 0.00 | 1.38 | 78 | 1007.0 |
| 20260508125615 | 83 | 246 | 5.0 | 7.0 | 0.00 | 0.00 | 1.38 | 77 | 1006.0 |
| 20260508125115 | 83 | 174 | 4.0 | 5.0 | 0.00 | 0.00 | 1.38 | 77 | 1006.0 |
| 20260508124614 | 83 | 225 | 9.0 | 9.0 | 0.00 | 0.00 | 1.38 | 76 | 1006.0 |
| 20260508124114 | 83 | 274 | 5.0 | 6.0 | 0.00 | 0.00 | 1.38 | 77 | 1006.0 |
| 20260508123614 | 83 | 266 | 3.0 | 3.0 | 0.00 | 0.00 | 1.38 | 77 | 1006.0 |
| 20260508123114 | 83 | 67 | 4.0 | 5.0 | 0.00 | 0.00 | 1.38 | 77 | 1006.0 |
| 20260508122614 | 83 | 315 | 2.0 | 5.0 | 0.00 | 0.00 | 1.38 | 76 | 1006.0 |
| 20260508122115 | 83 | 56 | 3.0 | 5.0 | 0.00 | 0.00 | 1.38 | 76 | 1006.0 |
| 20260508121615 | 83 | 231 | 7.0 | 9.0 | 0.00 | 0.00 | 1.38 | 76 | 1006.0 |
| 20260508121115 | 83 | 128 | 3.0 | 3.0 | 0.00 | 0.00 | 1.38 | 75 | 1006.0 |
| 20260508120614 | 83 | 69 | 4.0 | 5.0 | 0.00 | 0.00 | 1.38 | 75 | 1006.0 |
| 20260508120115 | 84 | 277 | 3.0 | 6.0 | 0.00 | 0.00 | 1.38 | 75 | 1006.0 |
| 20260508115615 | 84 | 76 | 2.0 | 3.0 | 0.00 | 0.00 | 1.38 | 75 | 1005.0 |
| 20260508115114 | 84 | 94 | 1.0 | 2.0 | 0.00 | 0.00 | 1.38 | 74 | 1006.0 |
| 20260508114616 | 84 | 261 | 6.0 | 7.0 | 0.00 | 0.00 | 1.38 | 73 | 1006.0 |
| 20260508114115 | 84 | 53 | 1.0 | 1.0 | 0.00 | 0.00 | 1.38 | 73 | 1006.0 |
| 20260508113615 | 84 | 103 | 3.0 | 5.0 | 0.00 | 0.00 | 1.38 | 73 | 1005.0 |
| 20260508113115 | 84 | 270 | 4.0 | 5.0 | 0.00 | 0.00 | 1.38 | 74 | 1005.0 |
| 20260508112614 | 84 | 223 | 3.0 | 5.0 | 0.00 | 0.00 | 1.38 | 74 | 1005.0 |
| 20260508112114 | 84 | 26 | 3.0 | 6.0 | 0.00 | 0.00 | 1.38 | 74 | 1005.0 |
| 20260508111614 | 84 | 234 | 4.0 | 5.0 | 0.00 | 0.00 | 1.38 | 73 | 1005.0 |
| 20260508111114 | 84 | 55 | 3.0 | 5.0 | 0.00 | 0.00 | 1.38 | 74 | 1005.0 |
| 20260508110614 | 85 | 186 | 2.0 | 3.0 | 0.00 | 0.00 | 1.38 | 74 | 1005.0 |
| 20260508110114 | 85 | 59 | 1.0 | 1.0 | 0.00 | 0.00 | 1.38 | 73 | 1005.0 |
| 20260508105615 | 85 | 60 | 3.0 | 5.0 | 0.00 | 0.00 | 1.38 | 73 | 1005.0 |
| 20260508105115 | 85 | 208 | 6.0 | 7.0 | 0.00 | 0.00 | 1.38 | 74 | 1005.0 |
| 20260508104614 | 84 | 140 | 5.0 | 6.0 | 0.00 | 0.00 | 1.38 | 74 | 1005.0 |
| 20260508104115 | 85 | 240 | 5.0 | 6.0 | 0.00 | 0.00 | 1.38 | 74 | 1005.0 |
| 20260508103615 | 85 | 247 | 5.0 | 9.0 | 0.00 | 0.00 | 1.38 | 74 | 1005.0 |
| 20260508103114 | 85 | 31 | 4.0 | 6.0 | 0.00 | 0.00 | 1.38 | 77 | 1005.0 |
| 20260508102614 | 85 | 69 | 2.0 | 2.0 | 0.00 | 0.00 | 1.38 | 77 | 1005.0 |
| 20260508102115 | 85 | 271 | 6.0 | 7.0 | 0.00 | 0.00 | 1.38 | 76 | 1005.0 |
| 20260508101614 | 85 | 127 | 5.0 | 7.0 | 0.00 | 0.00 | 1.38 | 77 | 1005.0 |
| 20260508101114 | 85 | 16 | 3.0 | 3.0 | 0.00 | 0.00 | 1.38 | 77 | 1005.0 |
| 20260508100615 | 85 | 73 | 2.0 | 3.0 | 0.00 | 0.00 | 1.38 | 77 | 1005.0 |
| 20260508100116 | 85 | 62 | 3.0 | 5.0 | 0.00 | 0.00 | 1.38 | 76 | 1005.0 |
| 20260508095615 | 85 | 280 | 3.0 | 8.0 | 0.00 | 0.00 | 1.38 | 77 | 1005.0 |
| 20260508095115 | 85 | 232 | 5.0 | 7.0 | 0.00 | 0.00 | 1.38 | 76 | 1005.0 |
| 20260508094615 | 85 | 249 | 5.0 | 8.0 | 0.00 | 0.00 | 1.38 | 76 | 1005.0 |
| 20260508094115 | 85 | 129 | 2.0 | 3.0 | 0.00 | 0.00 | 1.38 | 77 | 1006.0 |
| 20260508093615 | 85 | 54 | 3.0 | 5.0 | 0.00 | 0.00 | 1.38 | 77 | 1006.0 |
| 20260508093114 | 85 | 213 | 3.0 | 5.0 | 0.00 | 0.00 | 1.38 | 77 | 1006.0 |
| 20260508092614 | 85 | 331 | 3.0 | 3.0 | 0.00 | 0.00 | 1.38 | 77 | 1006.0 |
| 20260508092114 | 85 | 96 | 3.0 | 5.0 | 0.00 | 0.00 | 1.38 | 79 | 1005.0 |
| 20260508091616 | 85 | 63 | 4.0 | 6.0 | 0.00 | 0.00 | 1.38 | 79 | 1005.0 |
| 20260508091116 | 85 | 63 | 3.0 | 3.0 | 0.00 | 0.00 | 1.38 | 79 | 1005.0 |
| 20260508090615 | 84 | 25 | 4.0 | 5.0 | 0.00 | 0.00 | 1.38 | 80 | 1006.0 |
| 20260508090114 | 83 | 276 | 4.0 | 7.0 | 0.00 | 0.00 | 1.38 | 83 | 1006.0 |
| 20260508085615 | 82 | 346 | 3.0 | 5.0 | 0.00 | 0.00 | 1.38 | 86 | 1005.0 |
| 20260508085114 | 81 | 204 | 5.0 | 7.0 | 0.00 | 0.00 | 1.38 | 89 | 1005.0 |
| 20260508084614 | 81 | 332 | 5.0 | 6.0 | 0.00 | 0.00 | 1.38 | 90 | 1006.0 |
| 20260508084114 | 80 | 24 | 1.0 | 1.0 | 0.00 | 0.00 | 1.38 | 90 | 1005.0 |
| 20260508083616 | 79 | 45 | 2.0 | 2.0 | 0.00 | 0.00 | 1.38 | 90 | 1005.0 |
| 20260508083116 | 78 | 47 | 1.0 | 1.0 | 0.00 | 0.00 | 1.38 | 90 | 1006.0 |
| 20260508082616 | 78 | 54 | 2.0 | 2.0 | 0.00 | 0.00 | 1.38 | 89 | 1006.0 |
| 20260508082116 | 78 | 60 | 0.0 | 1.0 | 0.00 | 0.00 | 1.38 | 90 | 1006.0 |
| 20260508081615 | 76 | 60 | 0.0 | 0.0 | 0.00 | 0.00 | 1.38 | 90 | 1006.0 |
| 20260508081114 | 76 | 61 | 0.0 | 1.0 | 0.00 | 0.00 | 1.38 | 90 | 1006.0 |
| 20260508080614 | 76 | 60 | 1.0 | 2.0 | 0.00 | 0.00 | 1.38 | 90 | 1006.0 |
| 20260508080114 | 75 | 66 | 1.0 | 2.0 | 0.05 | 0.00 | 1.38 | 90 | 1006.0 |
| 20260508075615 | 75 | 65 | 0.0 | 1.0 | 0.78 | 0.00 | 1.38 | 90 | 1007.0 |
| 20260508075114 | 75 | 70 | 0.0 | 0.0 | 1.21 | 0.00 | 1.37 | 90 | 1006.0 |
| 20260508074614 | 74 | 60 | 1.0 | 1.0 | 1.87 | 0.00 | 1.28 | 90 | 1007.0 |
| 20260508074114 | 74 | 100 | 2.0 | 3.0 | 3.54 | 0.00 | 1.17 | 90 | 1007.0 |
| 20260508073614 | 77 | 64 | 6.0 | 8.0 | 5.27 | 0.00 | 0.95 | 90 | 1007.0 |
| 20260508073114 | 78 | 152 | 8.0 | 11.0 | 3.28 | 0.00 | 0.55 | 89 | 1007.0 |
| 20260508072615 | 83 | 205 | 17.0 | 27.0 | 0.35 | 0.00 | 0.06 | 83 | 1007.0 |
| 20260508072114 | 88 | 76 | 3.0 | 5.0 | 0.00 | 0.00 | 0.00 | 66 | 1007.0 |
| 20260508071614 | 88 | 53 | 2.0 | 2.0 | 0.00 | 0.00 | 0.00 | 66 | 1006.0 |
| 20260508071114 | 88 | 72 | 1.0 | 1.0 | 0.00 | 0.00 | 0.00 | 68 | 1006.0 |
| 20260508070614 | 87 | 64 | 0.0 | 1.0 | 0.00 | 0.00 | 0.00 | 68 | 1006.0 |
| 20260508070114 | 87 | 133 | 2.0 | 2.0 | 0.00 | 0.00 | 0.00 | 72 | 1006.0 |
| 20260508065615 | 89 | 95 | 1.0 | 2.0 | 0.00 | 0.00 | 0.00 | 65 | 1006.0 |
| 20260508065114 | 90 | 190 | 3.0 | 5.0 | 0.00 | 0.00 | 0.00 | 62 | 1006.0 |
| 20260508064615 | 90 | 251 | 6.0 | 7.0 | 0.00 | 0.00 | 0.00 | 60 | 1006.0 |
| 20260508064114 | 91 | 316 | 4.0 | 6.0 | 0.00 | 0.00 | 0.00 | 60 | 1007.0 |
| 20260508063614 | 90 | 51 | 4.0 | 6.0 | 0.00 | 0.00 | 0.00 | 60 | 1007.0 |
| 20260508063114 | 91 | 246 | 5.0 | 6.0 | 0.00 | 0.00 | 0.00 | 59 | 1007.0 |
| 20260508062614 | 92 | 196 | 6.0 | 8.0 | 0.00 | 0.00 | 0.00 | 58 | 1007.0 |
| 20260508062114 | 93 | 241 | 6.0 | 7.0 | 0.00 | 0.00 | 0.00 | 57 | 1007.0 |
| 20260508061614 | 93 | 81 | 2.0 | 2.0 | 0.00 | 0.00 | 0.00 | 55 | 1007.0 |
| 20260508061115 | 95 | 154 | 2.0 | 5.0 | 0.00 | 0.00 | 0.00 | 53 | 1007.0 |
| 20260508060614 | 95 | 95 | 3.0 | 6.0 | 0.00 | 0.00 | 0.00 | 52 | 1007.0 |
| 20260508060114 | 94 | 298 | 7.0 | 7.0 | 0.00 | 0.00 | 0.00 | 54 | 1007.0 |
| 20260508055614 | 94 | 80 | 2.0 | 2.0 | 0.00 | 0.00 | 0.00 | 54 | 1007.0 |
| 20260508055114 | 94 | 56 | 2.0 | 3.0 | 0.00 | 0.00 | 0.00 | 55 | 1007.0 |
| 20260508054615 | 93 | 219 | 7.0 | 8.0 | 0.00 | 0.00 | 0.00 | 56 | 1007.0 |
| 20260508054114 | 91 | 176 | 5.0 | 7.0 | 0.00 | 0.00 | 0.00 | 60 | 1007.0 |
| 20260508053614 | 91 | 185 | 3.0 | 7.0 | 0.00 | 0.00 | 0.00 | 59 | 1007.0 |
| 20260508053115 | 92 | 201 | 8.0 | 10.0 | 0.00 | 0.00 | 0.00 | 57 | 1007.0 |
| 20260508052615 | 91 | 65 | 3.0 | 3.0 | 0.00 | 0.00 | 0.00 | 62 | 1007.0 |
| 20260508052114 | 91 | 80 | 1.0 | 1.0 | 0.00 | 0.00 | 0.00 | 61 | 1007.0 |
| 20260508051614 | 91 | 294 | 4.0 | 6.0 | 0.00 | 0.00 | 0.00 | 62 | 1007.0 |
| 20260508051114 | 92 | 93 | 1.0 | 2.0 | 0.00 | 0.00 | 0.00 | 59 | 1007.0 |
| 20260508050614 | 93 | 66 | 1.0 | 1.0 | 0.00 | 0.00 | 0.00 | 57 | 1007.0 |
| 20260508050114 | 91 | 76 | 3.0 | 3.0 | 0.00 | 0.00 | 0.00 | 61 | 1007.0 |
| 20260508045614 | 90 | 96 | 4.0 | 6.0 | 0.00 | 0.00 | 0.00 | 64 | 1007.0 |
| 20260508045115 | 90 | 120 | 3.0 | 5.0 | 0.00 | 0.00 | 0.00 | 62 | 1007.0 |
| 20260508044614 | 90 | 146 | 4.0 | 6.0 | 0.00 | 0.00 | 0.00 | 64 | 1008.0 |
| 20260508044114 | 89 | 233 | 6.0 | 7.0 | 0.00 | 0.00 | 0.00 | 65 | 1008.0 |
| 20260508043615 | 89 | 176 | 5.0 | 8.0 | 0.00 | 0.00 | 0.00 | 66 | 1008.0 |
| 20260508043114 | 90 | 209 | 3.0 | 6.0 | 0.00 | 0.00 | 0.00 | 64 | 1008.0 |
| 20260508042614 | 90 | 147 | 6.0 | 7.0 | 0.00 | 0.00 | 0.00 | 63 | 1008.0 |
| 20260508042114 | 90 | 95 | 3.0 | 3.0 | 0.00 | 0.00 | 0.00 | 65 | 1008.0 |
| 20260508041614 | 90 | 32 | 3.0 | 5.0 | 0.00 | 0.00 | 0.00 | 65 | 1008.0 |
| 20260508041114 | 89 | 318 | 5.0 | 6.0 | 0.00 | 0.00 | 0.00 | 64 | 1008.0 |
| 20260508040614 | 90 | 343 | 2.0 | 2.0 | 0.00 | 0.00 | 0.00 | 62 | 1008.0 |
| 20260508040115 | 91 | 142 | 3.0 | 3.0 | 0.00 | 0.00 | 0.00 | 63 | 1008.0 |
| 20260508035614 | 90 | 67 | 3.0 | 5.0 | 0.00 | 0.00 | 0.00 | 65 | 1008.0 |
| 20260508035114 | 91 | 274 | 3.0 | 5.0 | 0.00 | 0.00 | 0.00 | 63 | 1008.0 |
| 20260508034614 | 89 | 79 | 4.0 | 6.0 | 0.00 | 0.00 | 0.00 | 66 | 1008.0 |
| 20260508034115 | 89 | 81 | 5.0 | 6.0 | 0.00 | 0.00 | 0.00 | 68 | 1008.0 |
| 20260508033615 | 89 | 70 | 1.0 | 1.0 | 0.00 | 0.00 | 0.00 | 69 | 1008.0 |
| 20260508033115 | 87 | 97 | 1.0 | 1.0 | 0.00 | 0.00 | 0.00 | 73 | 1008.0 |
| 20260508032614 | 87 | 133 | 3.0 | 3.0 | 0.00 | 0.00 | 0.00 | 75 | 1008.0 |
| 20260508032117 | 88 | 124 | 4.0 | 5.0 | 0.00 | 0.00 | 0.00 | 74 | 1008.0 |
| 20260508031614 | 86 | 71 | 2.0 | 2.0 | 0.00 | 0.00 | 0.00 | 76 | 1008.0 |
| 20260508031114 | 88 | 108 | 1.0 | 2.0 | 0.00 | 0.00 | 0.00 | 74 | 1008.0 |
| 20260508030614 | 88 | 70 | 0.0 | 0.0 | 0.00 | 0.00 | 0.00 | 72 | 1008.0 |
| 20260508030114 | 89 | 72 | 0.0 | 0.0 | 0.00 | 0.00 | 0.00 | 71 | 1008.0 |
| 20260508025614 | 88 | 76 | 1.0 | 1.0 | 0.00 | 0.00 | 0.00 | 73 | 1008.0 |
| 20260508025114 | 86 | 71 | 0.0 | 0.0 | 0.00 | 0.00 | 0.00 | 75 | 1008.0 |
| 20260508024615 | 86 | 115 | 3.0 | 3.0 | 0.00 | 0.00 | 0.00 | 75 | 1008.0 |